Williamtown, Australia

7:23 PM AEST on April 27, 2017 (GMT +1000)
Williamtown Military

Weather History for YWLM - March, 2014

Change the Weather History Date:

Friday, March 28, 2014

  Actual Average Record
Temperature  
Mean Temperature 70 °F -  
Max Temperature 75 °F - - ()
Min Temperature 65 °F - - ()
Cooling Degree Days 5    
Growing Degree Days 20 (Base 50)    
Moisture  
Dew Point 65 °F    
Average Humidity 88    
Maximum Humidity 100    
Minimum Humidity 65    
Precipitation  
Precipitation 0.83 in - - ()
Sea Level Pressure  
Sea Level Pressure 29.97 in    
Wind  
Wind Speed 6 mph ()    
Max Wind Speed 16 mph    
Max Gust Speed -    
Visibility 6.1 miles    
Events Rain    
T = Trace of Precipitation, MM = Missing Value Source: Averaged Metar Reports

Daily Weather History Graph

Daily Weather History Graph

Search for Another Location

Airport or City:

Trip Planner

Search our weather history database for the weather conditions in past years. The results will help you decide how hot, cold, wet, or windy it might be!

Date:

Astronomy

Mar. 28, 2014 Rise Set
Actual Time 7:01 AM AEDT 6:54 PM AEDT
Civil Twilight 6:36 AM AEDT 7:18 PM AEDT
Nautical Twilight 6:08 AM AEDT 7:47 PM AEDT
Astronomical Twilight 5:39 AM AEDT 8:15 PM AEDT
Moon 3:56 AM AEDT (3/28) 5:01 PM AEDT (3/28)
Length of Visible Light 12h 41m
Length of Day
11h 52m
Waning Crescent, 10% of the Moon is Illuminated
Mar 28
Waning Crescent
Mar 31
New
Apr 7
First Quarter
Apr 15
Full
Apr 22
Last Quarter

Hourly Weather History & Observations

Time (AEDT) Temp. Dew Point Humidity Pressure Visibility Wind Dir Wind Speed Gust Speed Precip Events Conditions
12:00 AM 69 °F 65 °F 85% 30.10 in - NNE 5.8 mph - -  
12:00 AM 68.0 °F 66.2 °F 94% 30.09 in 6.2 mi NNE 5.8 mph - N/A   Overcast
12:30 AM 68.0 °F 64.4 °F 88% 30.09 in 6.2 mi NNE 5.8 mph - N/A Rain Light Rain
1:00 AM 68.0 °F 64.4 °F 88% 30.06 in 6.2 mi NE 6.9 mph - N/A   Drizzle
1:30 AM 68.0 °F 62.6 °F 83% 30.04 in 6.2 mi NE 8.1 mph - N/A   Unknown
2:00 AM 68 °F 62 °F 74% 30.03 in - NE 10.4 mph - -  
2:00 AM 68.0 °F 62.6 °F 83% 30.01 in 6.2 mi NE 10.4 mph - N/A   Unknown
2:30 AM 68.0 °F 60.8 °F 78% 30.01 in 6.2 mi North 5.8 mph - N/A   Unknown
3:00 AM 66 °F 63 °F 85% 30.02 in - NW 4.6 mph - -  
3:00 AM 66.2 °F 62.6 °F 88% 30.01 in 6.2 mi NW 4.6 mph - N/A   Unknown
3:30 AM 66.2 °F 62.6 °F 88% 30.01 in 6.2 mi NNE 5.8 mph - N/A   Unknown
4:00 AM 66.2 °F 62.6 °F 88% 30.01 in 6.2 mi NNW 5.8 mph - N/A   Unknown
4:30 AM 66.2 °F 60.8 °F 83% 29.98 in 6.2 mi NE 5.8 mph - N/A   Unknown
5:00 AM 66 °F 62 °F 82% 30.00 in - NNE 5.8 mph - -  
5:00 AM 66.2 °F 62.6 °F 88% 29.98 in 6.2 mi NNE 5.8 mph - N/A Rain Light Rain
5:30 AM 66.2 °F 62.6 °F 88% 30.01 in 6.2 mi NE 1.2 mph - N/A   Drizzle
6:00 AM 65 °F 63 °F 92% 30.02 in - Calm Calm - -  
6:00 AM 66.2 °F 62.6 °F 88% 30.01 in 6.2 mi Calm Calm - N/A Rain Light Rain
6:30 AM 66.2 °F 62.6 °F 88% 30.01 in 6.2 mi ENE 8.1 mph - N/A Rain Light Rain
7:00 AM 64.4 °F 62.6 °F 94% 30.01 in 6.2 mi NE 5.8 mph - N/A Rain Light Rain
7:30 AM 66.2 °F 62.6 °F 88% 30.01 in 6.2 mi ENE 8.1 mph - N/A Rain Light Rain
8:00 AM 65 °F 64 °F 96% 30.04 in - NNE 5.8 mph - -  
8:00 AM 66.2 °F 64.4 °F 94% 30.04 in 6.2 mi NNE 5.8 mph - N/A Rain Light Rain
8:30 AM 66.2 °F 64.4 °F 94% 30.04 in 6.2 mi North 5.8 mph - N/A Rain Light Rain
9:00 AM 67 °F 65 °F 92% 30.05 in - North 1.2 mph - -   Overcast
9:00 AM 66.2 °F 64.4 °F 94% 30.04 in 6.2 mi North 1.2 mph - N/A Rain Light Rain
9:30 AM 68.0 °F 66.2 °F 94% 30.04 in 6.2 mi North 3.5 mph - N/A   Mostly Cloudy
10:00 AM 68.0 °F 64.4 °F 88% 30.04 in 6.2 mi NNE 5.8 mph - N/A   Mostly Cloudy
10:30 AM 69.8 °F 66.2 °F 88% 30.04 in 6.2 mi North 4.6 mph - N/A   Mostly Cloudy
11:00 AM 70 °F 65 °F 79% 30.04 in - NW 6.9 mph - -  
11:00 AM 69.8 °F 64.4 °F 83% 30.04 in 6.2 mi NW 6.9 mph - N/A   Mostly Cloudy
11:30 AM 71.6 °F 64.4 °F 78% 30.04 in 6.2 mi North 5.8 mph - N/A   Mostly Cloudy
12:00 PM 72 °F 64 °F 71% 30.03 in - North 8.1 mph - -  
12:00 PM 71.6 °F 64.4 °F 78% 30.01 in 6.2 mi North 8.1 mph - N/A   Mostly Cloudy
12:30 PM 75.2 °F 64.4 °F 69% 29.98 in 6.2 mi NW 8.1 mph - N/A   Mostly Cloudy
1:00 PM 75.2 °F 64.4 °F 69% 29.98 in 6.2 mi WNW 6.9 mph - N/A   Mostly Cloudy
1:30 PM 75.2 °F 62.6 °F 65% 29.98 in 6.2 mi West 3.5 mph - N/A   Mostly Cloudy
2:00 PM 71 °F 67 °F 82% 29.97 in - North 6.9 mph - -  
2:00 PM 71.6 °F 66.2 °F 83% 29.95 in 4.3 mi North 6.9 mph - N/A Rain Light Rain Showers
2:30 PM 71.6 °F 66.2 °F 83% 29.95 in 6.2 mi North 4.6 mph - N/A   Mostly Cloudy
3:00 PM 73 °F 67 °F 75% 29.94 in - ESE 8.1 mph - -   Overcast
3:00 PM 73.4 °F 66.2 °F 78% 29.92 in 6.2 mi ESE 8.1 mph - N/A   Mostly Cloudy
3:30 PM 71.6 °F 66.2 °F 83% 29.92 in 6.2 mi East 8.1 mph - N/A Rain Light Rain Showers
4:00 PM 69.8 °F 68.0 °F 94% 29.92 in 6.2 mi East 10.4 mph - N/A   Mostly Cloudy
4:30 PM 69.8 °F 66.2 °F 88% 29.92 in 6.2 mi SE 8.1 mph - N/A   Overcast
5:00 PM 70 °F 66 °F 83% 29.91 in - ESE 8.1 mph - -  
5:00 PM 69.8 °F 66.2 °F 88% 29.89 in 6.2 mi ESE 8.1 mph - N/A   Overcast
5:30 PM 69.8 °F 66.2 °F 88% 29.89 in 6.2 mi ESE 9.2 mph - N/A   Mostly Cloudy
5:58 PM 69.8 °F 66.2 °F 88% 29.89 in 6.2 mi ESE 8.1 mph - N/A   Mostly Cloudy
6:00 PM 69 °F 66 °F 87% 29.90 in - ESE 8.1 mph - -   Overcast
6:00 PM 69.8 °F 66.2 °F 88% 29.89 in 6.2 mi ESE 8.1 mph - N/A   Mostly Cloudy
6:30 PM 68.0 °F 66.2 °F 94% 29.89 in 6.2 mi ESE 5.8 mph - N/A Rain Light Rain Showers
7:00 PM 68.0 °F 66.2 °F 94% 29.89 in 6.2 mi South 5.8 mph - N/A   Overcast
7:30 PM 68.0 °F 66.2 °F 94% 29.89 in 6.2 mi South 4.6 mph - N/A Rain Light Rain Showers
8:00 PM 66 °F 65 °F 96% 29.91 in - West 12.7 mph - -  
8:00 PM 66.2 °F 64.4 °F 94% 29.89 in 0.8 mi West 12.7 mph - N/A Rain Heavy Rain Showers
8:21 PM 66.2 °F 64.4 °F 94% 29.92 in 6.2 mi West 10.4 mph - N/A Rain Rain Showers
8:30 PM 66.2 °F 66.2 °F 100% 29.92 in 6.2 mi WSW 9.2 mph - N/A Rain Rain
8:34 PM 66.2 °F 66.2 °F 100% 29.92 in 6.2 mi WSW 10.4 mph - N/A Rain Rain
9:00 PM 66 °F 65 °F 98% 29.94 in - West 10.4 mph - -   Overcast
9:00 PM 66.2 °F 66.2 °F 100% 29.92 in 6.2 mi West 10.4 mph - N/A Rain Rain
9:21 PM 66.2 °F 66.2 °F 100% 29.92 in 6.2 mi WSW 8.1 mph - N/A Rain Rain
9:28 PM 66.2 °F 64.4 °F 94% 29.92 in 6.2 mi West 9.2 mph - N/A Rain Rain
9:30 PM 66.2 °F 64.4 °F 94% 29.92 in 6.2 mi West 9.2 mph - N/A Rain Rain
10:00 PM 66.2 °F 64.4 °F 94% 29.92 in 6.2 mi West 12.7 mph - N/A Rain Light Rain
10:30 PM 66.2 °F 64.4 °F 94% 29.92 in 6.2 mi NW 16.1 mph - N/A Rain Light Rain
11:00 PM 66 °F 64 °F 93% 29.94 in - WNW 13.8 mph - -  
11:00 PM 66.2 °F 64.4 °F 94% 29.92 in 6.2 mi WNW 13.8 mph - N/A   Mostly Cloudy
11:30 PM 66.2 °F 64.4 °F 94% 29.92 in 6.2 mi WNW 9.2 mph - N/A   Unknown